Weather History for Erwin, NC

Change the Weather History Date:

Friday, January 4, 2013

  Actual Average Record
Temperature  
Mean Temperature 39 °F -  
Max Temperature 51 °F 52 °F 77 °F (2004)
Min Temperature 27 °F 31 °F 12 °F (1979)
Degree Days  
Heating Degree Days 26    
Moisture  
Dew Point 26 °F    
Average Humidity 63    
Maximum Humidity 100    
Minimum Humidity 33    
Precipitation  
Precipitation 0.00 in - - ()
Sea Level Pressure  
Sea Level Pressure 30.27 in    
Wind  
Wind Speed 2 mph (WNW)    
Max Wind Speed 9 mph    
Max Gust Speed -    
Visibility 8 miles    
Events Fog    
Averages and records for this station are not official NWS values.
T = Trace of Precipitation, MM = Missing Value Source: NWS Daily Summary

Daily Weather History Graph

Daily Weather History Graph

Search for Another Location

Airport:

Trip Planner

Search our weather history database for the weather conditions in past years. The results will help you decide how hot, cold, wet, or windy it might be!

Date:

Astronomy

Jan. 04, 2013 Rise Set
Actual Time 7:24 AM EST 5:15 PM EST
Civil Twilight 6:56 AM EST 5:44 PM EST
Nautical Twilight 6:24 AM EST 6:15 PM EST
Astronomical Twilight 5:53 AM EST 6:46 PM EST
Moon No Moon Rise 11:22 AM EST (1/4)
Length of Visible Light 10h 47m
Length of Day
9h 51m
Waning Gibbous, 55% of the Moon is Illuminated
Jan 4
Waning Gibbous
Jan 4
Last Quarter
Jan 11
New
Jan 18
First Quarter
Jan 26
Full

Hourly Weather History & Observations

Time (EST) Temp. Windchill Dew Point Humidity Pressure Visibility Wind Dir Wind Speed Gust Speed Precip Events Conditions
12:15 AM 32.0 °F - 31.8 °F 99% 30.27 in 1.2 mi Calm Calm - N/A   Overcast
12:35 AM 31.5 °F - 31.3 °F 99% 30.27 in 1.5 mi Calm Calm - N/A   Overcast
12:55 AM 30.6 °F - 30.6 °F 100% 30.27 in 0.5 mi Calm Calm - N/A Fog Light Freezing Fog
1:15 AM 30.6 °F - 30.6 °F 100% 30.26 in 0.8 mi Calm Calm - N/A   Overcast
1:35 AM 30.0 °F - 30.0 °F 100% 30.27 in 2.0 mi Calm Calm - N/A   Overcast
1:55 AM 29.8 °F - 29.8 °F 100% 30.27 in 0.5 mi Calm Calm - N/A Fog Light Freezing Fog
2:15 AM 29.1 °F - 29.1 °F 100% 30.27 in 0.5 mi Calm Calm - N/A Fog Light Freezing Fog
2:35 AM 29.1 °F - 29.1 °F 100% 30.28 in 1.8 mi Calm Calm - N/A   Overcast
2:55 AM 29.1 °F - 29.1 °F 100% 30.29 in 4.0 mi Calm Calm - N/A   Scattered Clouds
3:15 AM 28.9 °F - 28.9 °F 100% 30.29 in 7.0 mi Calm Calm - N/A   Clear
3:35 AM 29.1 °F - 29.1 °F 100% 30.29 in 7.0 mi Calm Calm - N/A   Clear
3:55 AM 29.5 °F - 29.5 °F 100% 30.28 in 5.0 mi Calm Calm - N/A   Clear
4:15 AM 29.3 °F - 29.3 °F 100% 30.28 in 7.0 mi Calm Calm - N/A   Clear
6:55 AM 28.2 °F 24.4 °F 27.7 °F 98% 30.29 in 7.0 mi NW 3.5 mph - N/A   Clear
7:15 AM 27.5 °F - 27.3 °F 99% 30.30 in 7.0 mi Calm Calm - N/A   Clear
7:35 AM 28.2 °F - 28.0 °F 99% 30.30 in 7.0 mi Calm Calm - N/A   Clear
7:55 AM 28.6 °F - 27.9 °F 97% 30.30 in 7.0 mi Calm Calm - N/A   Clear
8:15 AM 30.4 °F - 29.7 °F 97% 30.31 in 10.0 mi Calm Calm - N/A   Clear
8:35 AM 31.5 °F - 30.2 °F 95% 30.31 in 7.0 mi Calm Calm - N/A   Clear
8:55 AM 32.7 °F - 31.5 °F 95% 30.31 in 10.0 mi Calm Calm - N/A   Clear
9:15 AM 35.1 °F - 28.2 °F 76% 30.32 in 10.0 mi Calm Calm - N/A   Clear
9:35 AM 36.7 °F 34.1 °F 27.9 °F 70% 30.32 in 10.0 mi WNW 3.5 mph - N/A   Clear
9:55 AM 38.1 °F 35.7 °F 27.9 °F 67% 30.33 in 10.0 mi NW 3.5 mph - N/A   Clear
10:15 AM 39.4 °F 36.1 °F 27.5 °F 62% 30.33 in 10.0 mi WNW 4.6 mph - N/A   Clear
10:35 AM 41.0 °F 38.0 °F 26.1 °F 55% 30.33 in 10.0 mi WNW 4.6 mph - N/A   Clear
10:55 AM 42.3 °F 37.9 °F 25.7 °F 52% 30.33 in 10.0 mi WNW 6.9 mph - N/A   Clear
11:15 AM 43.7 °F 39.1 °F 24.3 °F 46% 30.32 in 10.0 mi WNW 8.1 mph - N/A   Clear
11:35 AM 44.6 °F 39.7 °F 23.0 °F 43% 30.31 in 10.0 mi NW 9.2 mph - N/A   Clear
11:55 AM 45.7 °F 43.4 °F 23.5 °F 42% 30.29 in 10.0 mi West 4.6 mph - N/A   Clear
12:15 PM 47.3 °F - 22.8 °F 38% 30.27 in 10.0 mi WNW 8.1 mph - N/A   Clear
12:35 PM 48.6 °F - 23.7 °F 38% 30.26 in 10.0 mi WNW 4.6 mph - N/A   Clear
12:55 PM 48.9 °F - 22.3 °F 35% 30.25 in 10.0 mi WNW 6.9 mph - N/A   Clear
1:15 PM 50.2 °F - 23.2 °F 35% 30.24 in 10.0 mi West 6.9 mph - N/A   Clear
1:35 PM 50.0 °F - 21.6 °F 33% 30.23 in 10.0 mi WNW 6.9 mph - N/A   Clear
1:55 PM 50.9 °F - 22.5 °F 33% 30.22 in 10.0 mi WNW 5.8 mph - N/A   Clear
2:15 PM 51.6 °F - 23.5 °F 33% 30.22 in 10.0 mi WSW 5.8 mph - N/A   Clear
2:35 PM 51.6 °F - 23.0 °F 33% 30.22 in 10.0 mi WSW 8.1 mph - N/A   Clear
2:55 PM 51.4 °F - 23.0 °F 33% 30.22 in 10.0 mi WSW 5.8 mph - N/A   Clear
3:15 PM 51.4 °F - 23.9 °F 34% 30.22 in 10.0 mi WSW 6.9 mph - N/A   Clear
3:35 PM 50.7 °F - 24.3 °F 36% 30.21 in 10.0 mi SW 4.6 mph - N/A   Clear
3:55 PM 51.3 °F - 23.7 °F 34% 30.21 in 10.0 mi WSW 3.5 mph - N/A   Clear
4:15 PM 51.3 °F - 23.2 °F 33% 30.21 in 10.0 mi West 4.6 mph - N/A   Clear
4:35 PM 50.4 °F - 23.5 °F 35% 30.21 in 10.0 mi West 3.5 mph - N/A   Clear
4:55 PM 49.3 °F - 23.7 °F 37% 30.22 in 10.0 mi West 3.5 mph - N/A   Clear
5:15 PM 48.7 °F - 24.3 °F 38% 30.22 in 10.0 mi Calm Calm - N/A   Clear
5:35 PM 46.6 °F - 25.3 °F 43% 30.22 in 10.0 mi Calm Calm - N/A   Clear
5:55 PM 46.0 °F - 26.1 °F 46% 30.23 in 10.0 mi Calm Calm - N/A   Mostly Cloudy
6:15 PM 44.4 °F 42.9 °F 29.1 °F 55% 30.23 in 10.0 mi WSW 3.5 mph - N/A   Overcast
6:35 PM 45.3 °F 44.0 °F 27.3 °F 49% 30.25 in 10.0 mi WSW 3.5 mph - N/A   Overcast
6:55 PM 45.5 °F - 28.4 °F 51% 30.25 in 10.0 mi Calm Calm - N/A   Overcast
7:15 PM 45.9 °F 44.6 °F 27.9 °F 49% 30.26 in 10.0 mi West 3.5 mph - N/A   Overcast
7:35 PM 45.9 °F - 28.2 °F 50% 30.26 in 10.0 mi Calm Calm - N/A   Overcast
7:55 PM 45.9 °F 44.6 °F 28.0 °F 50% 30.27 in 10.0 mi WSW 3.5 mph - N/A   Overcast
8:15 PM 45.5 °F - 28.6 °F 52% 30.28 in 10.0 mi Calm Calm - N/A   Overcast
8:35 PM 44.4 °F 42.9 °F 29.3 °F 55% 30.27 in 10.0 mi SW 3.5 mph - N/A   Scattered Clouds
8:55 PM 41.5 °F - 29.3 °F 62% 30.28 in 10.0 mi Calm Calm - N/A   Clear
9:15 PM 41.0 °F - 29.3 °F 63% 30.29 in 10.0 mi Calm Calm - N/A   Clear
9:35 PM 39.6 °F 37.4 °F 28.9 °F 66% 30.29 in 10.0 mi NW 3.5 mph - N/A   Clear
9:55 PM 39.6 °F 34.7 °F 27.5 °F 62% 30.30 in 10.0 mi NW 6.9 mph - N/A   Clear
10:15 PM 40.5 °F 36.5 °F 23.7 °F 51% 30.30 in 10.0 mi NNW 5.8 mph - N/A   Clear
10:35 PM 40.6 °F 36.7 °F 21.7 °F 47% 30.31 in 10.0 mi NW 5.8 mph - N/A   Clear
10:55 PM 39.4 °F 34.5 °F 21.9 °F 50% 30.31 in 10.0 mi NW 6.9 mph - N/A   Clear
11:15 PM 39.6 °F 34.7 °F 21.2 °F 48% 30.30 in 10.0 mi NW 6.9 mph - N/A   Clear
11:35 PM 38.3 °F 34.8 °F 21.7 °F 51% 30.30 in 10.0 mi NW 4.6 mph - N/A   Clear
11:55 PM 36.7 °F - 21.9 °F 55% 30.30 in 10.0 mi Calm Calm - N/A   Clear